When you browse on this site, cookies collect data to enhance your experience and personalize the content and advertising you see.
Visit our Privacy Policy to learn more. By continuing to use the site, you agree to this use of cookies and data.

Stündliche Wetter San Luis

Heute, 8 August, Samstag

Zeit Temperatur Niederschläge Wind Luftdruck Luftfeuchtigkeit
00:00 +10°C° 0 mm 3 m/S 702 mmHg 70%
01:00 +10°C° 0 mm 3 m/S 702 mmHg 69%
02:00 +9°C° 0 mm 2 m/S 701 mmHg 68%
03:00 +9°C° 0 mm 2 m/S 701 mmHg 65%
04:00 +9°C° 0 mm 2 m/S 700 mmHg 62%
05:00 +9°C° 0 mm 3 m/S 700 mmHg 59%
06:00 +9°C° 0 mm 3 m/S 700 mmHg 56%
07:00 +10°C° 0 mm 3 m/S 701 mmHg 53%
08:00 +10°C° 0 mm 3 m/S 701 mmHg 51%
09:00 +12°C° 0 mm 3 m/S 701 mmHg 44%
10:00 +15°C° 0 mm 4 m/S 701 mmHg 38%
11:00 +18°C° 0 mm 4 m/S 701 mmHg 31%
12:00 +19°C° 0 mm 4 m/S 701 mmHg 31%
13:00 +20°C° 0 mm 4 m/S 701 mmHg 30%
14:00 +21°C° 0 mm 4 m/S 700 mmHg 29%
15:00 +21°C° 0 mm 4 m/S 700 mmHg 31%
16:00 +20°C° 0 mm 4 m/S 699 mmHg 32%
17:00 +20°C° 0 mm 4 m/S 698 mmHg 34%
18:00 +18°C° 0 mm 3 m/S 698 mmHg 38%
19:00 +17°C° 0 mm 3 m/S 699 mmHg 43%
20:00 +14°C° 0 mm 3 m/S 699 mmHg 48%
21:00 +14°C° 0 mm 3 m/S 698 mmHg 48%
22:00 +13°C° 0 mm 3 m/S 698 mmHg 48%
23:00 +13°C° 0 mm 3 m/S 698 mmHg 48%

Morgen, 9 August, Sonntag

Zeit Temperatur Niederschläge Wind Luftdruck Luftfeuchtigkeit
00:00 +13°C° 0 mm 3 m/S 698 mmHg 50%
01:00 +13°C° 0 mm 4 m/S 698 mmHg 51%
02:00 +13°C° 0 mm 4 m/S 698 mmHg 53%
03:00 +12°C° 0 mm 3 m/S 697 mmHg 56%
04:00 +11°C° 0 mm 3 m/S 697 mmHg 58%
05:00 +12°C° 0 mm 2 m/S 696 mmHg 61%
06:00 +12°C° 0 mm 2 m/S 696 mmHg 61%
07:00 +12°C° 0 mm 1 m/S 697 mmHg 60%
08:00 +13°C° 0 mm 1 m/S 697 mmHg 59%
09:00 +16°C° 0 mm 2 m/S 697 mmHg 52%
10:00 +18°C° 0 mm 3 m/S 697 mmHg 45%
11:00 +21°C° 0 mm 4 m/S 697 mmHg 37%
12:00 +22°C° 0 mm 5 m/S 696 mmHg 34%
13:00 +23°C° 0 mm 6 m/S 695 mmHg 31%
14:00 +24°C° 0 mm 7 m/S 695 mmHg 28%
15:00 +24°C° 0 mm 6 m/S 694 mmHg 28%
16:00 +25°C° 0 mm 5 m/S 694 mmHg 29%
17:00 +25°C° 0 mm 3 m/S 693 mmHg 29%
18:00 +22°C° 0 mm 3 m/S 693 mmHg 34%
19:00 +19°C° 0 mm 2 m/S 693 mmHg 40%
20:00 +18°C° 0 mm 1 m/S 693 mmHg 46%
21:00 +16°C° 0 mm 2 m/S 694 mmHg 47%
22:00 +16°C° 0 mm 2 m/S 694 mmHg 49%
23:00 +14°C° 0 mm 3 m/S 694 mmHg 51%

übermorgen, 10 August, Montag

Zeit Temperatur Niederschläge Wind Luftdruck Luftfeuchtigkeit
00:00 +14°C° 0 mm 3 m/S 694 mmHg 53%
01:00 +13°C° 0 mm 3 m/S 695 mmHg 56%
02:00 +13°C° 0 mm 3 m/S 695 mmHg 58%
03:00 +12°C° 0 mm 4 m/S 695 mmHg 61%
04:00 +12°C° 0 mm 5 m/S 695 mmHg 63%
05:00 +10°C° 0 mm 5 m/S 695 mmHg 65%
06:00 +10°C° 0 mm 6 m/S 696 mmHg 65%
07:00 +10°C° 0 mm 6 m/S 697 mmHg 64%
08:00 +10°C° 0 mm 7 m/S 697 mmHg 63%
09:00 +12°C° 0 mm 7 m/S 698 mmHg 54%
10:00 +13°C° 0 mm 8 m/S 698 mmHg 45%
11:00 +16°C° 0 mm 8 m/S 699 mmHg 36%
12:00 +16°C° 0 mm 9 m/S 699 mmHg 36%
13:00 +16°C° 0 mm 9 m/S 699 mmHg 35%
14:00 +16°C° 0 mm 10 m/S 699 mmHg 35%
15:00 +15°C° 0 mm 9 m/S 699 mmHg 32%
16:00 +12°C° 0 mm 9 m/S 700 mmHg 30%
17:00 +11°C° 0 mm 8 m/S 700 mmHg 27%
18:00 +9°C° 0 mm 8 m/S 701 mmHg 30%
19:00 +8°C° 0 mm 7 m/S 701 mmHg 33%
20:00 +5°C° 0 mm 7 m/S 702 mmHg 36%
21:00 +5°C° 0 mm 7 m/S 702 mmHg 33%
22:00 +4°C° 0 mm 7 m/S 703 mmHg 30%
23:00 +3°C° 0 mm 7 m/S 703 mmHg 27%

11 August, Dienstag

Zeit Temperatur Niederschläge Wind Luftdruck Luftfeuchtigkeit
00:00 +3°C° 0 mm 6 m/S 703 mmHg 27%
01:00 +3°C° 0 mm 6 m/S 703 mmHg 26%
02:00 +2°C° 0 mm 5 m/S 703 mmHg 26%
03:00 +2°C° 0 mm 5 m/S 703 mmHg 25%
04:00 +2°C° 0 mm 5 m/S 702 mmHg 24%
05:00 +2°C° 0 mm 5 m/S 702 mmHg 23%
06:00 +4°C° 0 mm 4 m/S 702 mmHg 23%
07:00 +4°C° 0 mm 4 m/S 702 mmHg 22%
08:00 +5°C° 0 mm 3 m/S 703 mmHg 22%
09:00 +8°C° 0 mm 3 m/S 702 mmHg 21%
10:00 +8°C° 0 mm 4 m/S 702 mmHg 19%
11:00 +11°C° 0 mm 4 m/S 702 mmHg 17%
12:00 +12°C° 0 mm 4 m/S 702 mmHg 19%
13:00 +14°C° 0 mm 4 m/S 701 mmHg 21%
14:00 +15°C° 0 mm 4 m/S 700 mmHg 22%
15:00 +14°C° 0 mm 4 m/S 699 mmHg 22%
16:00 +14°C° 0 mm 4 m/S 699 mmHg 22%
17:00 +14°C° 0 mm 4 m/S 698 mmHg 22%
18:00 +12°C° 0 mm 4 m/S 698 mmHg 24%
19:00 +10°C° 0 mm 3 m/S 698 mmHg 25%
20:00 +8°C° 0 mm 3 m/S 698 mmHg 27%
21:00 +7°C° 0 mm 3 m/S 698 mmHg 29%
22:00 +7°C° 0 mm 3 m/S 698 mmHg 31%
23:00 +5°C° 0 mm 3 m/S 698 mmHg 33%

12 August, Mittwoch

Zeit Temperatur Niederschläge Wind Luftdruck Luftfeuchtigkeit
00:00 +5°C° 0 mm 3 m/S 698 mmHg 33%
01:00 +5°C° 0 mm 4 m/S 698 mmHg 33%
02:00 +5°C° 0 mm 4 m/S 697 mmHg 33%
03:00 +5°C° 0 mm 4 m/S 697 mmHg 32%
04:00 +5°C° 0 mm 4 m/S 697 mmHg 31%
05:00 +5°C° 0 mm 5 m/S 696 mmHg 30%
06:00 +5°C° 0 mm 4 m/S 696 mmHg 29%
07:00 +5°C° 0 mm 4 m/S 697 mmHg 28%
08:00 +5°C° 0 mm 4 m/S 697 mmHg 27%
09:00 +7°C° 0 mm 4 m/S 697 mmHg 23%
10:00 +10°C° 0 mm 4 m/S 697 mmHg 19%
11:00 +12°C° 0 mm 4 m/S 697 mmHg 15%
12:00 +13°C° 0 mm 4 m/S 697 mmHg 16%
13:00 +13°C° 0 mm 4 m/S 696 mmHg 16%
14:00 +14°C° 0 mm 3 m/S 695 mmHg 16%
15:00 +14°C° 0 mm 3 m/S 695 mmHg 17%
16:00 +15°C° 0 mm 2 m/S 695 mmHg 17%
17:00 +14°C° 0 mm 2 m/S 695 mmHg 18%
18:00 +13°C° 0 mm 2 m/S 695 mmHg 20%
19:00 +10°C° 0 mm 2 m/S 695 mmHg 23%
20:00 +8°C° 0 mm 3 m/S 696 mmHg 25%
21:00 +7°C° 0 mm 3 m/S 696 mmHg 28%
22:00 +7°C° 0 mm 2 m/S 696 mmHg 30%
23:00 +6°C° 0 mm 2 m/S 697 mmHg 33%

13 August, Donnerstag

Zeit Temperatur Niederschläge Wind Luftdruck Luftfeuchtigkeit
00:00 +6°C° 0 mm 2 m/S 697 mmHg 34%
01:00 +6°C° 0 mm 1 m/S 697 mmHg 35%
02:00 +5°C° 0 mm 1 m/S 697 mmHg 36%
03:00 +5°C° 0 mm 1 m/S 696 mmHg 37%
04:00 +5°C° 0 mm 1 m/S 696 mmHg 38%
05:00 +4°C° 0 mm 1 m/S 696 mmHg 39%
06:00 +5°C° 0 mm 1 m/S 697 mmHg 39%
07:00 +6°C° 0 mm 1 m/S 697 mmHg 38%
08:00 +7°C° 0 mm 1 m/S 698 mmHg 37%
09:00 +9°C° 0 mm 1 m/S 698 mmHg 32%
10:00 +11°C° 0 mm 1 m/S 698 mmHg 27%
11:00 +14°C° 0 mm 1 m/S 698 mmHg 21%
12:00 +15°C° 0 mm 1 m/S 697 mmHg 20%
13:00 +15°C° 0 mm 1 m/S 697 mmHg 19%
14:00 +16°C° 0 mm 1 m/S 696 mmHg 18%
15:00 +16°C° 0 mm 1 m/S 696 mmHg 18%
16:00 +16°C° 0 mm 1 m/S 695 mmHg 18%
17:00 +15°C° 0 mm 0 m/S 695 mmHg 18%
18:00 +14°C° 0 mm 1 m/S 694 mmHg 21%
19:00 +12°C° 0 mm 1 m/S 694 mmHg 24%
20:00 +10°C° 0 mm 1 m/S 694 mmHg 28%
21:00 +9°C° 0 mm 2 m/S 694 mmHg 27%
22:00 +9°C° 0 mm 2 m/S 694 mmHg 27%
23:00 +9°C° 0 mm 3 m/S 694 mmHg 27%
Mehr zeigen